Wind_Speed
16 15 15 15 14 14 15 14 14 13 12 12 12 12 12 12 11 11 11 11 11 11 11 12 12 12 12 12 12 12 12 12 12 12 12 11 11 11 11 11 10 10 11 11
17 16 15 15 15 15 15 15 14 14 12 13 13 13 13 13 13 13 13 13 13 13 13 13 13 13 13 13 13 12 11 12 12 13 12 12 12 12 12 12 12 12 12 12
17 17 17 16 15 15 15 15 15 14 13 14 15 15 14 14 14 14 14 15 15 15 14 14 14 14 14 14 13 13 13 12 13 14 14 14 14 14 14 14 13 14 14 14
19 18 18 15 16 16 16 16 15 15 15 15 15 15 15 15 15 15 15 15 15 15 15 15 14 14 14 14 14 14 14 14 14 15 16 16 16 15 15 15 15 15 15 15
21 20 19 17 17 17 17 16 16 16 16 16 16 16 15 16 16 16 16 16 16 16 16 16 15 15 15 15 15 15 15 15 15 16 16 17 17 17 17 16 16 17 17 17
22 22 21 18 18 19 19 18 17 17 17 17 17 17 16 17 17 17 17 17 17 17 17 17 16 15 15 16 16 15 15 15 16 16 16 16 17 17 18 18 17 18 18 18
22 23 22 21 21 21 21 19 19 19 19 19 18 18 18 18 18 18 18 18 18 17 17 17 17 16 16 16 16 16 16 16 16 16 17 17 17 18 18 18 18 19 19 19
24 24 23 22 23 23 22 22 21 21 21 21 20 20 19 20 20 20 19 19 19 19 18 18 18 18 18 18 17 17 17 18 18 17 18 17 18 18 19 19 19 20 20 20
26 25 24 24 24 24 24 24 24 23 23 23 22 22 22 22 21 21 20 20 20 21 20 19 19 19 20 20 19 19 19 19 19 19 19 19 19 19 20 21 21 21 22 22
28 27 26 26 26 26 26 26 26 25 25 24 24 23 23 23 23 22 21 21 22 22 21 21 20 20 20 20 20 20 20 20 20 20 20 20 20 21 21 22 22 22 23 23
28 27 27 26 26 27 27 27 26 26 26 25 25 24 24 24 24 23 23 22 23 22 22 22 21 21 20 21 21 21 22 22 22 22 22 22 22 22 23 23 24 24 24 24
28 27 27 27 27 28 28 28 28 27 27 26 25 24 24 24 24 23 24 24 23 23 23 23 23 22 22 23 23 23 24 24 24 23 24 24 24 24 25 25 26 26 26 25
29 29 29 28 28 28 29 29 29 28 27 26 26 25 24 24 24 24 24 24 25 25 24 24 25 24 25 25 25 26 26 26 26 26 25 25 25 26 26 26 27 27 27 27
31 30 30 30 30 30 30 29 29 29 28 27 27 26 26 26 25 26 26 26 26 26 26 25 26 26 26 26 26 27 27 27 27 27 27 27 27 27 28 28 29 29 29 28
32 32 31 31 31 30 30 30 30 30 29 28 28 28 27 27 26 27 27 27 27 27 27 27 27 27 27 27 28 28 29 29 29 28 29 29 29 29 29 30 30 30 30 30
32 32 32 32 31 30 30 30 31 31 30 29 29 29 29 29 28 28 28 28 28 28 28 28 29 29 29 29 29 29 30 30 30 30 30 31 31 32 32 32 32 32 32 32
32 32 32 32 32 31 31 31 31 31 31 31 31 30 30 30 29 29 29 29 29 29 30 30 30 31 31 31 31 31 31 31 31 31 32 33 33 33 33 33 33 32 32 32
32 31 32 32 31 31 32 32 32 31 31 31 32 32 32 31 31 31 30 30 31 31 32 32 33 33 32 32 32 32 32 32 33 33 33 33 33 33 33 33 32 32 32 32
32 32 32 31 31 31 31 32 32 32 32 32 32 32 32 32 33 33 33 33 33 33 34 34 34 34 34 34 34 34 34 34 34 34 34 34 34 34 34 33 33 32 32 33
31 31 32 32 31 31 32 32 32 32 32 32 32 32 33 34 34 34 35 35 35 35 36 36 36 36 36 36 36 36 35 35 35 35 34 33 33 33 33 33 33 33 33 33
30 31 31 31 31 31 32 32 32 33 33 33 33 33 34 34 35 35 36 37 37 37 37 37 38 37 37 37 37 36 36 36 35 34 33 32 32 32 32 32 33 33 33 34
30 31 31 31 31 32 32 33 33 34 34 34 35 35 35 35 36 36 37 37 37 37 38 38 38 38 38 38 37 37 36 36 35 34 34 33 33 33 33 33 34 34 35 35
32 32 33 32 32 33 33 33 34 35 36 36 36 36 36 36 37 37 36 37 37 37 37 38 38 38 38 38 38 37 37 36 36 35 35 34 34 34 35 35 35 35 35 35
32 32 33 33 33 33 33 34 34 34 35 35 35 36 36 37 37 38 37 37 38 37 37 37 38 38 38 38 38 38 37 37 37 37 36 36 36 37 36 36 36 35 35 35
32 33 34 34 34 33 34 35 34 34 35 35 35 36 37 37 37 37 38 39 38 38 37 37 37 38 38 39 39 39 39 39 38 38 37 38 38 38 37 37 37 36 36 36
33 33 33 34 34 35 35 34 34 35 35 36 36 36 37 38 38 38 38 39 38 38 38 38 38 38 39 39 39 40 39 39 39 38 38 38 38 38 39 39 38 37 37 37
34 35 35 35 35 36 37 36 36 36 37 37 37 38 38 38 38 38 38 38 38 39 39 39 39 39 39 39 40 40 40 40 39 39 39 39 39 39 39 40 40 39 38 38
Wind_Direction
261 259 258 258 261 265 268 271 274 277 278 281 282 283 286 286 285 286 286 290 294 293 292 294 293 294 294 293 290 288 287 283 280 281 283 282 274 265 264 265 264 264 266 268
261 261 262 260 259 263 267 270 272 274 277 280 280 282 283 282 283 284 284 287 290 290 290 291 291 292 294 292 289 287 285 280 280 281 279 279 274 267 264 264 264 267 268 268
259 260 262 262 261 262 267 269 273 277 280 282 281 282 284 282 281 280 282 285 286 287 290 292 291 291 292 292 290 287 286 282 279 277 277 277 274 268 264 263 265 266 269 268
258 257 257 261 263 266 268 271 274 276 278 283 286 286 284 284 283 282 283 285 286 287 289 292 293 292 292 292 291 289 287 281 279 278 277 277 275 271 268 267 267 267 269 270
256 256 257 257 262 267 273 275 276 278 281 283 283 285 286 285 284 282 283 285 285 286 288 290 294 293 292 290 290 289 287 282 282 280 278 276 274 272 269 268 268 268 269 272
257 256 257 257 260 265 269 271 275 279 280 282 282 282 284 284 285 285 284 283 284 284 287 288 290 290 290 290 291 290 287 285 282 280 278 277 275 272 269 269 268 267 269 270
259 259 258 259 261 264 267 273 277 278 279 280 282 283 282 283 283 283 283 283 282 283 285 286 286 285 287 288 288 288 288 288 285 282 280 278 276 274 271 270 268 268 270 269
258 259 262 263 263 265 269 271 274 275 277 278 280 281 282 282 283 282 281 282 281 281 282 282 283 283 284 286 286 287 287 287 285 282 280 279 277 276 275 274 272 270 272 270
258 260 262 263 265 266 268 270 272 273 274 275 277 280 281 282 282 282 279 280 279 278 279 280 281 283 283 284 285 285 285 285 282 281 280 279 276 276 276 277 276 273 272 272
258 259 262 264 266 268 270 271 271 272 273 272 274 275 276 278 280 280 277 278 278 278 278 279 281 282 282 281 283 284 284 284 282 280 280 280 276 276 276 276 275 274 273 272
256 258 261 263 267 269 271 271 271 271 271 270 271 272 272 274 276 275 273 274 276 279 279 279 279 280 281 281 283 283 284 283 282 280 280 279 278 277 276 275 275 274 273 272
257 260 262 263 266 268 270 270 270 270 270 270 271 271 271 273 274 274 273 273 275 277 278 278 279 280 281 282 282 282 282 282 281 280 280 278 277 277 277 276 276 275 273 272
259 260 261 263 265 266 267 268 269 270 270 270 270 270 270 271 273 275 275 274 274 275 277 277 278 278 280 281 281 281 281 281 281 280 279 278 277 277 277 277 277 276 273 271
257 259 260 263 265 266 266 266 267 268 269 269 270 269 270 271 272 275 276 276 275 275 275 276 278 279 279 280 280 280 280 280 280 279 279 279 277 276 276 277 277 277 274 271
256 259 262 264 265 265 265 265 266 267 267 267 269 270 270 271 272 274 275 276 276 274 274 276 278 279 279 279 279 279 279 280 280 280 279 280 279 278 277 277 276 275 273 271
257 259 262 263 264 264 264 264 265 266 266 266 268 269 269 270 272 274 275 276 277 277 277 277 277 278 279 279 280 280 281 280 280 280 280 280 280 279 277 277 276 274 273 271
258 259 260 261 262 263 262 262 264 265 265 266 268 269 269 270 272 273 274 275 276 277 277 277 277 278 278 279 279 280 280 280 279 279 280 280 281 280 278 278 277 275 274 272
259 261 261 260 260 261 262 262 263 264 265 267 269 270 271 272 272 272 273 274 275 276 277 277 277 277 277 278 279 280 280 278 278 279 280 280 280 280 280 280 279 277 275 274
259 260 261 262 261 262 262 262 263 265 266 267 268 269 270 271 273 273 273 274 274 274 275 276 276 276 277 277 278 279 279 279 279 280 280 280 280 279 279 279 279 279 277 275
259 260 260 261 261 262 262 263 263 264 265 266 267 269 271 272 273 274 274 274 275 274 274 274 275 276 277 278 279 279 279 279 279 279 279 279 280 279 279 278 278 278 277 276
258 259 261 262 262 263 264 263 262 263 264 266 268 270 272 273 273 274 274 275 275 275 275 274 275 275 276 277 278 279 279 279 279 278 278 279 279 279 279 279 279 279 277 275
258 260 261 263 264 264 265 265 264 264 265 267 269 270 272 273 274 274 274 275 275 275 275 275 276 276 276 276 277 278 279 279 279 278 277 277 278 279 279 279 280 280 279 278
258 259 260 262 264 265 265 266 266 265 266 267 270 271 273 273 273 274 274 274 275 275 275 276 276 276 276 276 276 277 278 278 279 278 277 277 277 277 279 279 279 280 281 280
259 260 261 262 264 265 267 267 266 266 268 269 271 273 273 273 273 273 274 274 275 275 274 275 276 276 276 275 276 276 276 277 278 277 276 276 276 277 278 278 279 279 280 279
260 262 262 263 264 265 266 267 267 269 270 271 272 273 274 275 275 275 274 274 274 274 274 275 276 276 276 276 275 275 275 276 276 276 275 275 275 275 276 277 277 278 279 279
260 262 264 265 265 266 268 269 270 272 272 272 273 275 276 276 276 276 275 274 274 274 275 276 277 278 278 277 277 276 275 275 275 275 276 276 276 275 275 275 276 277 278 279
263 263 265 266 268 268 270 271 273 274 274 274 274 275 277 278 277 276 275 274 274 274 275 276 277 278 278 277 276 276 276 276 275 274 274 274 275 276 277 276 277 277 278 278
Height
5853 5853 5853 5853 5854 5854 5853 5853 5852 5852 5852 5852 5850 5850 5849 5848 5848 5847 5847 5846 5845 5844 5842 5841 5840 5839 5837 5836 5835 5834 5833 5832 5832 5831 5830 5829 5829 5829 5829 5829 5829 5829 5829 5829
5848 5848 5848 5848 5849 5849 5849 5848 5848 5848 5848 5847 5846 5845 5845 5844 5844 5843 5843 5842 5841 5840 5839 5837 5836 5835 5834 5832 5831 5830 5829 5829 5828 5827 5826 5826 5826 5825 5825 5825 5826 5826 5826 5826
5843 5843 5843 5844 5844 5844 5844 5844 5844 5843 5844 5843 5842 5841 5841 5840 5840 5839 5838 5837 5836 5835 5834 5833 5832 5831 5830 5828 5827 5826 5825 5824 5824 5823 5822 5822 5821 5821 5821 5821 5821 5822 5822 5821
5838 5839 5838 5842 5840 5840 5840 5840 5839 5839 5839 5838 5838 5837 5836 5836 5835 5834 5833 5833 5832 5830 5830 5828 5827 5826 5825 5824 5823 5822 5821 5820 5819 5819 5818 5817 5817 5816 5816 5817 5817 5817 5817 5817
5832 5832 5833 5836 5835 5834 5835 5835 5834 5834 5834 5833 5833 5832 5831 5830 5829 5829 5828 5828 5827 5825 5825 5824 5822 5821 5820 5819 5818 5817 5816 5815 5814 5813 5813 5812 5811 5811 5811 5812 5812 5812 5812 5812
5826 5826 5828 5831 5830 5829 5830 5829 5830 5829 5829 5828 5827 5827 5827 5825 5824 5823 5823 5822 5821 5820 5819 5819 5817 5816 5815 5814 5813 5812 5811 5810 5809 5808 5807 5807 5806 5806 5806 5806 5806 5806 5806 5806
5819 5819 5821 5824 5824 5824 5825 5825 5824 5823 5823 5822 5821 5821 5821 5819 5818 5818 5817 5817 5816 5815 5814 5813 5812 5811 5810 5809 5808 5807 5806 5805 5804 5803 5802 5801 5801 5800 5800 5800 5800 5800 5800 5800
5812 5813 5817 5817 5817 5818 5818 5817 5817 5817 5816 5815 5815 5814 5814 5813 5812 5811 5811 5810 5810 5809 5809 5808 5807 5806 5805 5804 5803 5801 5800 5799 5798 5797 5796 5796 5795 5795 5794 5794 5794 5794 5794 5794
5807 5809 5809 5809 5809 5810 5810 5810 5810 5809 5809 5809 5808 5807 5807 5806 5805 5804 5804 5803 5803 5803 5802 5802 5801 5800 5799 5798 5797 5796 5795 5793 5792 5791 5791 5790 5789 5789 5788 5788 5787 5787 5787 5787
5798 5800 5801 5801 5802 5802 5802 5802 5801 5801 5801 5801 5801 5800 5800 5799 5798 5797 5797 5796 5796 5796 5796 5795 5795 5794 5793 5792 5790 5789 5788 5787 5786 5785 5784 5783 5783 5782 5781 5781 5780 5780 5779 5779
5790 5792 5793 5793 5793 5793 5793 5793 5793 5793 5793 5793 5793 5792 5792 5792 5791 5790 5790 5789 5789 5789 5789 5788 5788 5787 5786 5785 5784 5783 5782 5781 5779 5778 5777 5776 5776 5775 5774 5774 5773 5772 5772 5771
5782 5783 5784 5785 5785 5785 5785 5784 5784 5784 5784 5784 5784 5784 5784 5784 5783 5783 5783 5782 5782 5782 5781 5781 5780 5780 5779 5778 5776 5775 5774 5773 5772 5771 5770 5769 5768 5767 5766 5766 5765 5764 5763 5763
5773 5774 5775 5776 5776 5776 5776 5776 5776 5776 5776 5776 5776 5776 5776 5776 5776 5776 5775 5775 5774 5774 5774 5773 5772 5772 5771 5770 5769 5767 5766 5765 5764 5763 5761 5760 5760 5759 5758 5757 5756 5755 5754 5754
5764 5765 5766 5767 5767 5767 5767 5767 5767 5767 5767 5767 5767 5767 5767 5768 5768 5767 5767 5766 5766 5766 5765 5765 5764 5764 5763 5761 5760 5759 5758 5756 5755 5754 5753 5751 5750 5750 5749 5748 5747 5746 5745 5745
5755 5756 5757 5757 5758 5758 5758 5758 5759 5759 5759 5759 5759 5759 5759 5759 5759 5759 5758 5758 5757 5757 5757 5756 5756 5755 5754 5753 5751 5750 5749 5747 5746 5744 5743 5742 5741 5740 5739 5738 5737 5736 5735 5735
5746 5746 5747 5748 5749 5749 5749 5749 5749 5750 5750 5750 5750 5751 5751 5750 5750 5750 5750 5749 5749 5748 5748 5747 5746 5746 5744 5743 5742 5740 5739 5737 5736 5735 5733 5732 5731 5729 5728 5727 5726 5725 5725 5725
5735 5737 5738 5738 5739 5740 5740 5740 5740 5741 5741 5741 5742 5741 5741 5741 5741 5741 5741 5740 5739 5739 5738 5737 5737 5736 5735 5733 5732 5730 5729 5727 5726 5724 5723 5722 5720 5719 5717 5716 5715 5714 5714 5713
5725 5726 5727 5728 5729 5730 5730 5730 5731 5731 5732 5732 5732 5732 5732 5732 5732 5731 5731 5730 5730 5729 5728 5727 5726 5725 5724 5723 5722 5720 5718 5717 5715 5714 5712 5711 5709 5707 5706 5705 5704 5703 5702 5702
5715 5716 5717 5717 5718 5719 5720 5720 5721 5721 5722 5722 5722 5722 5722 5722 5721 5721 5720 5720 5719 5719 5718 5717 5716 5715 5714 5713 5711 5709 5708 5706 5705 5703 5702 5700 5698 5697 5695 5694 5693 5692 5691 5690
5705 5706 5707 5707 5708 5709 5709 5710 5710 5710 5711 5711 5712 5712 5711 5711 5711 5710 5709 5709 5708 5708 5707 5706 5705 5704 5703 5702 5700 5698 5697 5695 5694 5692 5691 5689 5688 5686 5685 5684 5682 5681 5680 5679
5695 5696 5697 5697 5698 5699 5699 5699 5699 5700 5700 5700 5701 5701 5700 5700 5699 5698 5698 5697 5697 5695 5695 5694 5693 5692 5691 5690 5689 5687 5686 5684 5683 5681 5680 5679 5677 5676 5675 5673 5672 5670 5669 5668
5685 5686 5687 5687 5688 5688 5688 5688 5688 5689 5689 5689 5689 5689 5689 5688 5687 5686 5686 5685 5685 5683 5682 5682 5681 5680 5679 5678 5677 5675 5674 5673 5671 5670 5669 5668 5667 5666 5664 5663 5661 5660 5658 5657
5675 5676 5677 5677 5677 5678 5678 5677 5677 5677 5677 5677 5677 5677 5676 5676 5675 5674 5674 5673 5672 5671 5670 5669 5668 5668 5667 5666 5665 5664 5663 5661 5660 5659 5658 5657 5656 5655 5654 5652 5651 5649 5648 5646
5665 5666 5666 5667 5667 5667 5667 5666 5666 5666 5666 5665 5665 5664 5664 5663 5662 5662 5661 5661 5660 5659 5658 5657 5656 5655 5654 5653 5652 5651 5651 5650 5649 5647 5646 5646 5645 5644 5643 5641 5640 5638 5637 5635
5654 5655 5655 5656 5656 5656 5656 5656 5655 5655 5654 5654 5653 5652 5651 5650 5650 5649 5648 5648 5647 5646 5646 5645 5644 5643 5641 5641 5640 5639 5638 5637 5636 5635 5634 5634 5633 5632 5631 5630 5628 5627 5626 5624
5644 5644 5644 5645 5645 5645 5644 5644 5644 5643 5642 5642 5641 5640 5639 5638 5637 5636 5635 5635 5634 5633 5633 5632 5631 5630 5629 5628 5627 5626 5625 5624 5624 5623 5622 5621 5620 5619 5618 5617 5616 5615 5614 5612
5633 5633 5633 5633 5633 5633 5633 5632 5631 5631 5630 5629 5628 5627 5626 5625 5624 5623 5622 5621 5621 5620 5620 5619 5618 5617 5616 5615 5614 5613 5612 5611 5611 5610 5609 5609 5608 5607 5606 5605 5604 5602 5601 5600